Dades meteomassalio
Diari Summary for Agost 3, 2017 Units:  English    Metric   Both
« Previous Day
Next Day »
Diari Semanal Mensual Anual Personalitzat
  Maxima: Minima: Mijana:
Temperatura: TemperatureC °F 18.8 °F 29.2 °F
Rosada: DewpointC °F 11.4 °F 15 °F
Humitat: Humidity % 20 % 46 %
Velocitat del vent: WindSpeedKMH mph 0.0 mph 4 mph
Racha vent: WindSpeedGustKMH mph - -
Vent:- - ESE
Pressio: PressurehPa in 1011.7 in -
Pluja: 0.0 in    
Historical Graphs
 
 
Tabular Data for Agost 3, 2017
Time Temperature Dew Point Pressure Wind Wind Speed Wind Gust Humidity Rainfall Rate (Hourly) solar Conditions
TemperatureC °F DewpointC °F PressurehPa in Calm     Humidity % HourlyPrecipMM in SolarRadiationWatts/m^2 W/m2 Conditions
00:04 26.7 °F 16.1 °F 1015.8 in Calm     52 % 0.0 in 0.0 W/m2 CLR
00:09 26.5 °F 15.8 °F 1015.8 in Calm     52 % 0.0 in 0.0 W/m2 CLR
00:14 26.6 °F 15.9 °F 1015.8 in Calm     52 % 0.0 in 0.0 W/m2 CLR
00:19 26.7 °F 16.0 °F 1015.8 in Calm     52 % 0.0 in 0.0 W/m2 CLR
00:24 26.6 °F 15.9 °F 1015.8 in Calm     52 % 0.0 in 0.0 W/m2 CLR
00:29 26.4 °F 16.1 °F 1015.8 in Calm     53 % 0.0 in 0.0 W/m2 CLR
00:34 26.1 °F 16.1 °F 1015.8 in Calm     54 % 0.0 in 0.0 W/m2 CLR
00:39 25.8 °F 16.1 °F 1015.8 in Calm     55 % 0.0 in 0.0 W/m2 CLR
00:44 25.5 °F 15.8 °F 1015.8 in Calm     55 % 0.0 in 0.0 W/m2 CLR
00:49 25.4 °F 16.0 °F 1015.8 in Calm     56 % 0.0 in 0.0 W/m2 CLR
00:54 25.3 °F 15.9 °F 1015.8 in Calm     56 % 0.0 in 0.0 W/m2 CLR
00:59 25.1 °F 15.7 °F 1015.8 in Calm     56 % 0.0 in 0.0 W/m2 CLR
01:04 25.2 °F 15.8 °F 1015.8 in Calm     56 % 0.0 in 0.0 W/m2 CLR
01:09 25.2 °F 15.8 °F 1015.8 in Calm     56 % 0.0 in 0.0 W/m2 CLR
01:14 25.0 °F 15.9 °F 1015.8 in Calm     57 % 0.0 in 0.0 W/m2 CLR
01:19 24.8 °F 15.7 °F 1015.5 in Calm     57 % 0.0 in 0.0 W/m2 CLR
01:24 24.6 °F 15.8 °F 1015.8 in Calm     58 % 0.0 in 0.0 W/m2 CLR
01:29 24.4 °F 15.8 °F 1015.5 in Calm     59 % 0.0 in 0.0 W/m2 CLR
01:34 24.1 °F 15.8 °F 1015.5 in Calm     60 % 0.0 in 0.0 W/m2 CLR
01:39 23.7 °F 15.5 °F 1015.5 in Calm     60 % 0.0 in 0.0 W/m2 CLR
01:44 23.5 °F 15.6 °F 1015.5 in Calm     61 % 0.0 in 0.0 W/m2 CLR
01:49 23.4 °F 15.4 °F 1015.5 in Calm     61 % 0.0 in 0.0 W/m2 CLR
01:54 23.3 °F 15.6 °F 1015.5 in Calm     62 % 0.0 in 0.0 W/m2 CLR
01:59 23.1 °F 15.4 °F 1015.5 in Calm     62 % 0.0 in 0.0 W/m2 CLR
02:04 22.9 °F 15.5 °F 1015.5 in Calm     63 % 0.0 in 0.0 W/m2 CLR
02:09 22.8 °F 15.7 °F 1015.5 in Calm     64 % 0.0 in 0.0 W/m2 CLR
02:14 22.8 °F 15.4 °F 1015.5 in Calm     63 % 0.0 in 0.0 W/m2 CLR
02:19 22.6 °F 15.4 °F 1015.5 in Calm     64 % 0.0 in 0.0 W/m2 CLR
02:24 22.5 °F 15.3 °F 1015.5 in Calm     64 % 0.0 in 0.0 W/m2 CLR
02:29 22.3 °F 15.2 °F 1015.5 in Calm     64 % 0.0 in 0.0 W/m2 CLR
02:35 22.2 °F 15.3 °F 1015.5 in Calm     65 % 0.0 in 0.0 W/m2 CLR
02:40 22.1 °F 15.2 °F 1015.5 in Calm     65 % 0.0 in 0.0 W/m2 CLR
02:45 22.0 °F 15.1 °F 1015.5 in Calm     65 % 0.0 in 0.0 W/m2 CLR
02:50 21.9 °F 15.0 °F 1015.5 in Calm     65 % 0.0 in 0.0 W/m2 CLR
02:55 21.7 °F 14.8 °F 1015.5 in Calm     65 % 0.0 in 0.0 W/m2 CLR
03:00 21.6 °F 14.9 °F 1015.5 in Calm     66 % 0.0 in 0.0 W/m2 CLR
03:05 21.4 °F 15.1 °F 1015.1 in Calm     67 % 0.0 in 0.0 W/m2 CLR
03:10 21.3 °F 14.9 °F 1015.1 in Calm     67 % 0.0 in 0.0 W/m2 CLR
03:15 21.2 °F 14.8 °F 1015.1 in Calm     67 % 0.0 in 0.0 W/m2 CLR
03:20 21.1 °F 14.7 °F 1015.1 in Calm     67 % 0.0 in 0.0 W/m2 CLR
03:25 21.1 °F 14.7 °F 1015.1 in Calm     67 % 0.0 in 0.0 W/m2 CLR
03:30 20.9 °F 14.6 °F 1015.1 in Calm     67 % 0.0 in 0.0 W/m2 CLR
03:35 20.8 °F 14.7 °F 1015.1 in Calm     68 % 0.0 in 0.0 W/m2 CLR
03:40 20.7 °F 14.4 °F 1015.5 in Calm     67 % 0.0 in 0.0 W/m2 CLR
03:42 20.6 °F 14.3 °F 1015.5 in Calm     67 % 0.0 in 0.0 W/m2 CLR
03:47 20.6 °F 14.2 °F 1015.5 in Calm     67 % 0.0 in 0.0 W/m2 CLR
03:52 20.5 °F 14.2 °F 1015.5 in Calm     67 % 0.0 in 0.0 W/m2 CLR
03:57 20.6 °F 14.2 °F 1015.5 in Calm     67 % 0.0 in 0.0 W/m2 CLR
04:02 20.6 °F 14.2 °F 1015.5 in Calm     67 % 0.0 in 0.0 W/m2 CLR
04:07 20.4 °F 14.3 °F 1015.5 in Calm     68 % 0.0 in 0.0 W/m2 CLR
04:12 20.3 °F 13.9 °F 1015.5 in Calm     67 % 0.0 in 0.0 W/m2 CLR
04:17 20.2 °F 14.1 °F 1015.5 in Calm     68 % 0.0 in 0.0 W/m2 CLR
04:22 20.1 °F 13.8 °F 1015.5 in Calm     67 % 0.0 in 0.0 W/m2 CLR
04:27 20.1 °F 13.8 °F 1015.5 in Calm     67 % 0.0 in 0.0 W/m2 CLR
04:32 20.1 °F 13.8 °F 1015.5 in Calm     67 % 0.0 in 0.0 W/m2 CLR
04:37 20.1 °F 13.9 °F 1015.5 in Calm     68 % 0.0 in 0.0 W/m2 CLR
04:42 20.0 °F 13.9 °F 1015.5 in Calm     68 % 0.0 in 0.0 W/m2 CLR
04:47 19.9 °F 13.8 °F 1015.5 in Calm     68 % 0.0 in 0.0 W/m2 CLR
04:52 19.9 °F 13.8 °F 1015.5 in Calm     68 % 0.0 in 0.0 W/m2 CLR
04:57 19.8 °F 14.0 °F 1015.5 in Calm     69 % 0.0 in 0.0 W/m2 CLR
05:02 19.7 °F 13.9 °F 1015.5 in Calm     69 % 0.0 in 0.0 W/m2 CLR
05:07 19.6 °F 13.7 °F 1015.5 in Calm     69 % 0.0 in 0.0 W/m2 CLR
05:12 19.6 °F 13.7 °F 1015.5 in Calm     69 % 0.0 in 0.0 W/m2 CLR
05:17 19.7 °F 13.6 °F 1015.5 in SSE 3.7 mph 3.7 mph 68 % 0.0 in 0.0 W/m2 CLR
05:22 19.8 °F 13.8 °F 1015.5 in Calm     68 % 0.0 in 0.0 W/m2 CLR
05:24 19.9 °F 13.6 °F 1015.5 in Calm     67 % 0.0 in 0.0 W/m2 CLR
05:26 19.9 °F 13.6 °F 1015.5 in Calm     67 % 0.0 in 0.0 W/m2 CLR
05:28 19.8 °F 13.8 °F 1015.5 in Calm     68 % 0.0 in 0.0 W/m2 CLR
05:33 19.7 °F 13.8 °F 1015.5 in Calm     69 % 0.0 in 0.0 W/m2 CLR
05:38 19.6 °F 13.7 °F 1015.5 in Calm     69 % 0.0 in 0.0 W/m2 CLR
05:43 19.5 °F 13.7 °F 1015.5 in SSW 5.6 mph 5.6 mph 69 % 0.0 in 0.0 W/m2 CLR
05:48 19.4 °F 13.6 °F 1015.5 in SW 3.7 mph 3.7 mph 69 % 0.0 in 0.0 W/m2 CLR
05:53 19.4 °F 13.4 °F 1015.5 in Calm     68 % 0.0 in 0.0 W/m2 CLR
05:58 19.4 °F 13.4 °F 1015.5 in Calm     68 % 0.0 in 0.0 W/m2 CLR
06:03 19.4 °F 13.4 °F 1015.5 in Calm     68 % 0.0 in 0.0 W/m2 CLR
06:08 19.6 °F 13.7 °F 1015.5 in Calm     69 % 0.0 in 0.0 W/m2 CLR
06:13 19.7 °F 13.6 °F 1015.5 in Calm     68 % 0.0 in 0.0 W/m2 CLR
06:18 19.6 °F 13.6 °F 1015.5 in Calm     68 % 0.0 in 0.0 W/m2 CLR
06:23 19.4 °F 13.6 °F 1015.5 in Calm     69 % 0.0 in 0.0 W/m2 CLR
06:28 19.4 °F 13.3 °F 1015.5 in Calm     68 % 0.0 in 0.0 W/m2 CLR
06:33 19.3 °F 13.5 °F 1015.8 in Calm     69 % 0.0 in 0.0 W/m2 CLR
06:38 19.3 °F 13.4 °F 1015.8 in Calm     69 % 0.0 in 0.0 W/m2 CLR
06:43 19.2 °F 13.3 °F 1015.8 in Calm     69 % 0.0 in 0.0 W/m2 CLR
06:48 18.9 °F 13.3 °F 1015.8 in Calm     70 % 0.0 in 0.0 W/m2 OVC
06:53 18.9 °F 13.5 °F 1015.8 in Calm     71 % 0.0 in 0.0 W/m2 OVC
06:58 18.9 °F 13.5 °F 1015.8 in Calm     71 % 0.0 in 0.0 W/m2 OVC
07:03 18.9 °F 13.6 °F 1015.8 in Calm     71 % 0.0 in 7.0 W/m2 OVC
07:08 18.9 °F 13.6 °F 1015.8 in Calm     71 % 0.0 in 11.0 W/m2 BKN
07:13 19.0 °F 13.6 °F 1015.8 in Calm     71 % 0.0 in 14.0 W/m2 BKN
07:18 19.0 °F 13.8 °F 1015.8 in Calm     72 % 0.0 in 18.0 W/m2 BKN
07:23 18.9 °F 13.9 °F 1015.8 in Calm     73 % 0.0 in 23.0 W/m2 BKN
07:28 18.8 °F 13.9 °F 1015.8 in Calm     73 % 0.0 in 26.0 W/m2 BKN
07:33 18.9 °F 13.8 °F 1015.8 in Calm     72 % 0.0 in 33.0 W/m2 BKN
07:38 19.1 °F 13.7 °F 1015.8 in Calm     71 % 0.0 in 39.0 W/m2 BKN
07:43 19.3 °F 13.7 °F 1015.8 in Calm     70 % 0.0 in 46.0 W/m2 SCT
07:48 19.4 °F 13.8 °F 1015.8 in Calm     70 % 0.0 in 56.0 W/m2 SCT
07:53 19.7 °F 13.9 °F 1015.8 in Calm     69 % 0.0 in 69.0 W/m2 SCT
07:58 19.9 °F 14.1 °F 1015.8 in SSE 1.9 mph   69 % 0.0 in 81.0 W/m2 FEW
08:03 20.1 °F 14.2 °F 1015.8 in Calm     69 % 0.0 in 91.0 W/m2 FEW
08:08 20.4 °F 14.3 °F 1015.8 in Calm     68 % 0.0 in 105.0 W/m2 CLR
08:13 20.8 °F 14.4 °F 1015.8 in Calm     67 % 0.0 in 121.0 W/m2 CLR
08:18 21.1 °F 14.7 °F 1015.8 in Calm     67 % 0.0 in 132.0 W/m2 CLR
08:23 21.4 °F 14.6 °F 1015.8 in Calm     65 % 0.0 in 149.0 W/m2 CLR
08:28 21.9 °F 14.8 °F 1015.8 in Calm     64 % 0.0 in 169.0 W/m2 CLR
08:33 22.4 °F 15.1 °F 1015.8 in Calm     63 % 0.0 in 192.0 W/m2 CLR
08:38 22.9 °F 15.3 °F 1015.8 in Calm     62 % 0.0 in 213.0 W/m2 CLR
08:43 23.3 °F 15.1 °F 1015.8 in Calm     60 % 0.0 in 230.0 W/m2 CLR
08:48 23.7 °F 15.5 °F 1015.8 in Calm     60 % 0.0 in 248.0 W/m2 CLR
08:53 24.0 °F 15.8 °F 1015.8 in Calm     60 % 0.0 in 237.0 W/m2 CLR
08:58 24.0 °F 15.8 °F 1015.8 in Calm     60 % 0.0 in 262.0 W/m2 CLR
09:03 23.9 °F 15.4 °F 1015.8 in Calm     59 % 0.0 in 285.0 W/m2 CLR
09:08 24.2 °F 15.9 °F 1015.8 in ENE 6.4 mph 6.4 mph 60 % 0.0 in 255.0 W/m2 CLR
09:13 24.5 °F 15.9 °F 1015.8 in ENE 5.6 mph 5.6 mph 59 % 0.0 in 315.0 W/m2 CLR
09:18 24.8 °F 15.4 °F 1015.8 in East 5.6 mph 5.6 mph 56 % 0.0 in 332.0 W/m2 CLR
09:23 25.3 °F 15.3 °F 1015.8 in ENE 3.7 mph   54 % 0.0 in 343.0 W/m2 CLR
09:28 25.9 °F 15.6 °F 1015.8 in Calm     53 % 0.0 in 367.0 W/m2 CLR
09:33 26.4 °F 15.5 °F 1015.8 in Calm     51 % 0.0 in 369.0 W/m2 CLR
09:38 27.1 °F 15.4 °F 1015.8 in Calm     49 % 0.0 in 394.0 W/m2 CLR
09:43 27.4 °F 15.4 °F 1015.8 in Calm     48 % 0.0 in 207.0 W/m2 CLR
09:48 27.6 °F 15.6 °F 1015.8 in Calm     48 % 0.0 in 213.0 W/m2 CLR
09:53 27.7 °F 15.7 °F 1015.8 in Calm     48 % 0.0 in 432.0 W/m2 CLR
09:58 28.0 °F 16.3 °F 1015.8 in Calm     49 % 0.0 in 457.0 W/m2 CLR
10:03 28.5 °F 16.1 °F 1015.8 in Calm     47 % 0.0 in 468.0 W/m2 CLR
10:08 28.9 °F 16.1 °F 1015.8 in Calm     46 % 0.0 in 478.0 W/m2 CLR
10:13 29.2 °F 16.1 °F 1015.8 in Calm     45 % 0.0 in 501.0 W/m2 CLR
10:18 29.4 °F 16.3 °F 1015.8 in Calm     45 % 0.0 in 510.0 W/m2 CLR
10:23 29.7 °F 16.1 °F 1015.8 in Calm     44 % 0.0 in 526.0 W/m2 CLR
10:28 30.0 °F 16.1 °F 1015.8 in Calm     43 % 0.0 in 548.0 W/m2 CLR
10:34 30.3 °F 16.3 °F 1015.8 in Calm     43 % 0.0 in 561.0 W/m2 CLR
10:39 30.4 °F 16.1 °F 1015.8 in ENE 1.9 mph 1.9 mph 42 % 0.0 in 570.0 W/m2 CLR
10:44 30.6 °F 16.2 °F 1015.5 in Calm     42 % 0.0 in 585.0 W/m2 CLR
10:49 31.1 °F 15.9 °F 1015.5 in Calm     40 % 0.0 in 601.0 W/m2 CLR
10:54 31.6 °F 16.3 °F 1015.5 in ENE 3.2 mph   40 % 0.0 in 605.0 W/m2 CLR
10:59 31.9 °F 16.6 °F 1015.5 in ENE 5.6 mph 5.6 mph 40 % 0.0 in 628.0 W/m2 CLR
11:04 32.1 °F 16.4 °F 1015.5 in ENE 7.4 mph 7.4 mph 39 % 0.0 in 647.0 W/m2 CLR
11:09 32.1 °F 16.8 °F 1015.5 in ENE 11.1 mph 11.1 mph 40 % 0.0 in 645.0 W/m2 CLR
11:14 32.3 °F 16.6 °F 1015.5 in NE 7.4 mph 7.4 mph 39 % 0.0 in 671.0 W/m2 CLR
11:19 32.2 °F 16.1 °F 1015.5 in ENE 5.6 mph   38 % 0.0 in 689.0 W/m2 CLR
11:24 32.4 °F 16.7 °F 1015.5 in ENE 5.6 mph 5.6 mph 39 % 0.0 in 679.0 W/m2 CLR
11:29 32.8 °F 16.7 °F 1015.5 in East 9.3 mph 9.3 mph 38 % 0.0 in 675.0 W/m2 CLR
11:34 32.7 °F 16.6 °F 1015.5 in NE 3.7 mph 3.7 mph 38 % 0.0 in 587.0 W/m2 CLR
11:39 32.9 °F 16.3 °F 1015.5 in NE 3.7 mph 3.7 mph 37 % 0.0 in 680.0 W/m2 CLR
11:44 33.1 °F 15.6 °F 1015.5 in NNE 9.3 mph 9.3 mph 35 % 0.0 in 714.0 W/m2 CLR
11:49 32.9 °F 15.4 °F 1015.5 in NNE 14.8 mph 14.8 mph 35 % 0.0 in 710.0 W/m2 CLR
11:54 32.9 °F 15.4 °F 1015.1 in NNW 7.4 mph 7.4 mph 35 % 0.0 in 733.0 W/m2 CLR
11:59 33.2 °F 15.7 °F 1015.1 in NNW 17.7 mph 17.7 mph 35 % 0.0 in 724.0 W/m2 CLR
12:04 33.3 °F 16.2 °F 1015.5 in NNW 14.8 mph 14.8 mph 36 % 0.0 in 768.0 W/m2 CLR
12:09 33.1 °F 16.1 °F 1015.5 in North 16.7 mph 16.7 mph 36 % 0.0 in 765.0 W/m2 CLR
12:14 33.2 °F 16.1 °F 1015.5 in NNW 14.8 mph 14.8 mph 36 % 0.0 in 775.0 W/m2 CLR
12:19 33.2 °F 16.1 °F 1015.5 in North 16.7 mph 16.7 mph 36 % 0.0 in 786.0 W/m2 CLR
12:24 33.3 °F 16.2 °F 1015.5 in NNE 18.5 mph 18.5 mph 36 % 0.0 in 788.0 W/m2 CLR
12:29 33.4 °F 16.3 °F 1015.1 in North 17.7 mph 17.7 mph 36 % 0.0 in 798.0 W/m2 CLR
12:34 33.4 °F 16.3 °F 1015.5 in NW 14.8 mph 14.8 mph 36 % 0.0 in 816.0 W/m2 CLR
12:39 33.4 °F 15.9 °F 1015.1 in NE 7.4 mph 7.4 mph 35 % 0.0 in 826.0 W/m2 CLR
12:40 33.4 °F 15.8 °F 1015.1 in NE 11.3 mph 11.3 mph 35 % 0.0 in 828.0 W/m2 CLR
12:45 33.8 °F 15.7 °F 1015.1 in NNE 14.8 mph 14.8 mph 34 % 0.0 in 837.0 W/m2 CLR
12:50 33.9 °F 15.9 °F 1015.1 in North 14.5 mph 14.5 mph 34 % 0.0 in 842.0 W/m2 CLR
12:55 33.8 °F 16.2 °F 1015.1 in NNE 14.8 mph 14.8 mph 35 % 0.0 in 847.0 W/m2 CLR
13:00 34.1 °F 16.0 °F 1015.1 in NNW 7.4 mph 7.4 mph 34 % 0.0 in 856.0 W/m2 CLR
13:05 34.4 °F 15.8 °F 1015.1 in NNE 16.7 mph 16.7 mph 33 % 0.0 in 858.0 W/m2 CLR
13:10 34.3 °F 16.2 °F 1014.8 in NNW 11.1 mph 11.1 mph 34 % 0.0 in 863.0 W/m2 CLR
13:15 34.4 °F 15.8 °F 1014.8 in ENE 13.0 mph   33 % 0.0 in 867.0 W/m2 CLR
13:20 34.7 °F 16.5 °F 1014.8 in North 14.8 mph 14.8 mph 34 % 0.0 in 875.0 W/m2 CLR
13:25 34.6 °F 16.0 °F 1014.8 in NNE 13.0 mph 13.0 mph 33 % 0.0 in 875.0 W/m2 CLR
13:30 34.7 °F 16.1 °F 1014.8 in NW 8.0 mph 8.0 mph 33 % 0.0 in 877.0 W/m2 CLR
13:35 34.8 °F 16.1 °F 1014.8 in West 11.1 mph 11.1 mph 33 % 0.0 in 881.0 W/m2 CLR
13:40 34.8 °F 16.2 °F 1014.8 in Calm     33 % 0.0 in 882.0 W/m2 CLR
13:45 35.3 °F 16.6 °F 1014.8 in Calm     33 % 0.0 in 879.0 W/m2 CLR
13:50 35.6 °F 15.9 °F 1014.4 in ESE 7.4 mph 7.4 mph 31 % 0.0 in 882.0 W/m2 CLR
13:55 35.3 °F 16.1 °F 1014.4 in ESE 6.4 mph 6.4 mph 32 % 0.0 in 881.0 W/m2 CLR
14:00 35.3 °F 15.6 °F 1014.4 in ENE 9.3 mph 9.3 mph 31 % 0.0 in 882.0 W/m2 CLR
14:05 35.1 °F 15.9 °F 1014.4 in Calm     32 % 0.0 in 882.0 W/m2 CLR
14:10 35.4 °F 16.2 °F 1014.4 in Calm     32 % 0.0 in 884.0 W/m2 CLR
14:11 35.5 °F 16.3 °F 1014.4 in Calm     32 % 0.0 in 884.0 W/m2 CLR
14:16 35.8 °F 16.1 °F 1014.1 in ENE 11.1 mph 11.1 mph 31 % 0.0 in 884.0 W/m2 CLR
14:21 36.0 °F 16.2 °F 1014.1 in Calm     31 % 0.0 in 879.0 W/m2 CLR
14:26 36.1 °F 16.3 °F 1014.1 in Calm     31 % 0.0 in 881.0 W/m2 CLR
14:31 36.1 °F 16.3 °F 1014.1 in Calm     31 % 0.0 in 881.0 W/m2 CLR
14:36 36.2 °F 15.8 °F 1014.1 in Calm     30 % 0.0 in 881.0 W/m2 CLR
14:41 36.4 °F 16.1 °F 1013.8 in NE 11.1 mph 11.1 mph 30 % 0.0 in 875.0 W/m2 CLR
14:46 36.6 °F 16.2 °F 1013.8 in Calm     30 % 0.0 in 879.0 W/m2 CLR
14:51 36.9 °F 16.0 °F 1013.8 in Calm     29 % 0.0 in 875.0 W/m2 CLR
14:56 37.0 °F 15.5 °F 1013.8 in ESE 5.6 mph 5.6 mph 28 % 0.0 in 870.0 W/m2 CLR
15:01 36.8 °F 15.3 °F 1013.8 in Calm     28 % 0.0 in 867.0 W/m2 CLR
15:06 37.1 °F 16.1 °F 1013.8 in East 7.4 mph 7.4 mph 29 % 0.0 in 863.0 W/m2 CLR
15:11 36.8 °F 15.3 °F 1013.8 in Calm     28 % 0.0 in 858.0 W/m2 CLR
15:16 36.8 °F 15.3 °F 1013.4 in ESE 9.3 mph 9.3 mph 28 % 0.0 in 854.0 W/m2 CLR
15:21 36.7 °F 14.7 °F 1013.4 in ENE 14.8 mph 14.8 mph 27 % 0.0 in 849.0 W/m2 CLR
15:26 36.7 °F 14.7 °F 1013.4 in ESE 11.1 mph 11.1 mph 27 % 0.0 in 844.0 W/m2 CLR
15:31 37.2 °F 13.8 °F 1013.4 in East 13.0 mph 13.0 mph 25 % 0.0 in 835.0 W/m2 CLR
15:36 37.3 °F 14.6 °F 1013.1 in ESE 14.8 mph 14.8 mph 26 % 0.0 in 824.0 W/m2 CLR
15:41 37.2 °F 14.5 °F 1013.1 in East 14.8 mph 14.8 mph 26 % 0.0 in 821.0 W/m2 CLR
15:46 37.3 °F 14.6 °F 1013.1 in SE 13.0 mph 13.0 mph 26 % 0.0 in 816.0 W/m2 CLR
15:51 37.3 °F 14.6 °F 1013.1 in East 7.4 mph   26 % 0.0 in 802.0 W/m2 CLR
15:56 37.4 °F 14.7 °F 1013.1 in East 14.8 mph 14.8 mph 26 % 0.0 in 793.0 W/m2 CLR
16:01 37.4 °F 14.7 °F 1013.1 in NNE 7.4 mph 7.4 mph 26 % 0.0 in 789.0 W/m2 CLR
16:06 37.7 °F 14.9 °F 1012.8 in NE 5.6 mph 5.6 mph 26 % 0.0 in 780.0 W/m2 CLR
16:11 38.0 °F 13.9 °F 1012.8 in SSE 11.1 mph 11.1 mph 24 % 0.0 in 761.0 W/m2 CLR
16:16 38.0 °F 13.9 °F 1012.8 in ESE 7.4 mph 7.4 mph 24 % 0.0 in 747.0 W/m2 CLR
16:21 38.2 °F 14.1 °F 1012.8 in ENE 16.7 mph 16.7 mph 24 % 0.0 in 744.0 W/m2 CLR
16:26 38.3 °F 14.2 °F 1012.8 in ENE 5.6 mph 5.6 mph 24 % 0.0 in 747.0 W/m2 CLR
16:31 38.1 °F 13.4 °F 1012.8 in ESE 7.4 mph 7.4 mph 23 % 0.0 in 728.0 W/m2 CLR
16:36 37.8 °F 13.1 °F 1012.8 in SE 12.9 mph 12.9 mph 23 % 0.0 in 721.0 W/m2 CLR
16:41 37.7 °F 13.0 °F 1012.4 in ENE 11.3 mph 11.3 mph 23 % 0.0 in 712.0 W/m2 CLR
16:46 37.6 °F 12.9 °F 1012.4 in ENE 5.6 mph 5.6 mph 23 % 0.0 in 696.0 W/m2 CLR
16:51 37.8 °F 12.4 °F 1012.4 in ENE 5.6 mph 5.6 mph 22 % 0.0 in 670.0 W/m2 CLR
16:56 38.0 °F 12.6 °F 1012.4 in NE 11.1 mph 11.1 mph 22 % 0.0 in 668.0 W/m2 CLR
17:01 37.9 °F 13.2 °F 1012.4 in ENE 11.1 mph 11.1 mph 23 % 0.0 in 652.0 W/m2 CLR
17:06 37.9 °F 13.2 °F 1012.4 in ENE 11.1 mph 11.1 mph 23 % 0.0 in 649.0 W/m2 CLR
17:11 38.2 °F 13.4 °F 1012.4 in Calm     23 % 0.0 in 633.0 W/m2 CLR
17:16 38.2 °F 12.8 °F 1012.4 in ENE 9.3 mph 9.3 mph 22 % 0.0 in 624.0 W/m2 CLR
17:21 38.1 °F 12.7 °F 1012.1 in ENE 9.3 mph 9.3 mph 22 % 0.0 in 608.0 W/m2 CLR
17:26 38.0 °F 13.3 °F 1012.1 in East 5.6 mph 5.6 mph 23 % 0.0 in 596.0 W/m2 CLR
17:31 38.1 °F 13.4 °F 1012.1 in NE 7.4 mph 7.4 mph 23 % 0.0 in 584.0 W/m2 CLR
17:36 38.3 °F 12.9 °F 1012.1 in East 6.4 mph 6.4 mph 22 % 0.0 in 568.0 W/m2 CLR
17:41 38.2 °F 12.8 °F 1012.1 in ENE 14.8 mph 14.8 mph 22 % 0.0 in 550.0 W/m2 CLR
17:46 38.1 °F 13.3 °F 1012.1 in NE 8.0 mph 8.0 mph 23 % 0.0 in 536.0 W/m2 CLR
17:51 38.2 °F 12.8 °F 1012.1 in North 1.9 mph   22 % 0.0 in 522.0 W/m2 CLR
17:57 38.4 °F 12.9 °F 1012.1 in East 4.8 mph 4.8 mph 22 % 0.0 in 508.0 W/m2 CLR
18:02 38.6 °F 13.1 °F 1012.1 in West 5.6 mph 5.6 mph 22 % 0.0 in 490.0 W/m2 CLR
18:07 38.8 °F 12.6 °F 1012.1 in NE 11.1 mph 11.1 mph 21 % 0.0 in 478.0 W/m2 CLR
18:12 38.9 °F 12.6 °F 1012.1 in North 5.6 mph 5.6 mph 21 % 0.0 in 469.0 W/m2 CLR
18:17 38.8 °F 12.5 °F 1012.1 in WNW 8.0 mph 8.0 mph 21 % 0.0 in 455.0 W/m2 CLR
18:22 38.7 °F 12.5 °F 1012.1 in North 8.0 mph 8.0 mph 21 % 0.0 in 436.0 W/m2 CLR
18:27 38.7 °F 11.7 °F 1011.7 in NE 12.9 mph 12.9 mph 20 % 0.0 in 422.0 W/m2 CLR
18:32 38.6 °F 11.7 °F 1011.7 in North 13.0 mph 13.0 mph 20 % 0.0 in 408.0 W/m2 CLR
18:37 38.6 °F 12.3 °F 1011.7 in ENE 9.3 mph 9.3 mph 21 % 0.0 in 392.0 W/m2 CLR
18:42 38.4 °F 11.5 °F 1011.7 in ENE 9.3 mph 9.3 mph 20 % 0.0 in 371.0 W/m2 CLR
18:47 38.4 °F 12.2 °F 1011.7 in NNE 9.3 mph 9.3 mph 21 % 0.0 in 353.0 W/m2 CLR
18:52 38.3 °F 11.4 °F 1011.7 in ENE 7.4 mph 7.4 mph 20 % 0.0 in 343.0 W/m2 CLR
18:57 38.4 °F 11.5 °F 1011.7 in North 8.0 mph 8.0 mph 20 % 0.0 in 329.0 W/m2 CLR
19:02 38.3 °F 15.4 °F 1011.7 in ENE 18.5 mph 18.5 mph 26 % 0.0 in 311.0 W/m2 CLR
19:07 37.4 °F 15.3 °F 1011.7 in East 11.1 mph 11.1 mph 27 % 0.0 in 292.0 W/m2 CLR
19:12 36.8 °F 15.3 °F 1011.7 in ESE 11.3 mph 11.3 mph 28 % 0.0 in 279.0 W/m2 CLR
19:17 36.4 °F 15.6 °F 1011.7 in SE 13.0 mph 13.0 mph 29 % 0.0 in 265.0 W/m2 CLR
19:22 36.2 °F 15.9 °F 1011.7 in East 16.7 mph 16.7 mph 30 % 0.0 in 250.0 W/m2 CLR
19:27 36.1 °F 15.8 °F 1011.7 in ESE 13.0 mph 13.0 mph 30 % 0.0 in 232.0 W/m2 CLR
19:32 36.1 °F 15.7 °F 1011.7 in ESE 14.8 mph 14.8 mph 30 % 0.0 in 218.0 W/m2 CLR
19:37 36.0 °F 15.7 °F 1011.7 in ESE 9.3 mph 9.3 mph 30 % 0.0 in 200.0 W/m2 CLR
19:42 35.9 °F 15.7 °F 1011.7 in ESE 11.1 mph 11.1 mph 30 % 0.0 in 183.0 W/m2 CLR
19:47 35.9 °F 15.7 °F 1011.7 in SE 13.0 mph 13.0 mph 30 % 0.0 in 163.0 W/m2 CLR
19:52 35.8 °F 15.6 °F 1011.7 in ESE 13.0 mph 13.0 mph 30 % 0.0 in 148.0 W/m2 CLR
19:57 35.8 °F 16.0 °F 1011.7 in SE 7.4 mph 7.4 mph 31 % 0.0 in 134.0 W/m2 CLR
20:02 35.7 °F 15.9 °F 1011.7 in SE 5.6 mph 5.6 mph 31 % 0.0 in 118.0 W/m2 CLR
20:07 35.6 °F 15.8 °F 1011.7 in SE 18.5 mph 18.5 mph 31 % 0.0 in 104.0 W/m2 CLR
20:12 35.5 °F 15.8 °F 1011.7 in SSE 13.0 mph 13.0 mph 31 % 0.0 in 90.0 W/m2 CLR
20:17 35.4 °F 15.7 °F 1011.7 in SSE 6.4 mph 6.4 mph 31 % 0.0 in 77.0 W/m2 FEW
20:22 35.3 °F 15.6 °F 1011.7 in SE 13.0 mph 13.0 mph 31 % 0.0 in 63.0 W/m2 SCT
20:27 35.2 °F 16.0 °F 1011.7 in SE 11.1 mph 11.1 mph 32 % 0.0 in 51.0 W/m2 SCT
20:32 35.1 °F 15.9 °F 1011.7 in SE 11.1 mph 11.1 mph 32 % 0.0 in 40.0 W/m2 BKN
20:37 35.0 °F 15.8 °F 1011.7 in SE 7.4 mph 7.4 mph 32 % 0.0 in 35.0 W/m2 BKN
20:42 34.8 °F 15.7 °F 1011.7 in SSE 5.6 mph 5.6 mph 32 % 0.0 in 28.0 W/m2 BKN
20:47 34.7 °F 15.6 °F 1012.1 in SE 5.6 mph 5.6 mph 32 % 0.0 in 23.0 W/m2 BKN
20:52 34.6 °F 15.5 °F 1012.1 in Calm     32 % 0.0 in 19.0 W/m2 BKN
20:57 34.4 °F 15.8 °F 1011.7 in SSE 1.9 mph   33 % 0.0 in 14.0 W/m2 BKN
21:02 34.2 °F 15.7 °F 1012.1 in Calm     33 % 0.0 in 11.0 W/m2 BKN
21:07 34.0 °F 15.9 °F 1012.1 in Calm     34 % 0.0 in 7.0 W/m2 BKN
21:12 33.8 °F 15.8 °F 1012.1 in Calm     34 % 0.0 in 5.0 W/m2 OVC
21:17 33.6 °F 16.4 °F 1012.1 in Calm     36 % 0.0 in 0.0 W/m2 OVC
21:22 33.3 °F 17.1 °F 1012.1 in Calm     38 % 0.0 in 0.0 W/m2 OVC
21:27 33.0 °F 16.8 °F 1012.1 in ESE 7.4 mph 7.4 mph 38 % 0.0 in 0.0 W/m2 CLR
21:32 32.9 °F 16.7 °F 1012.1 in Calm     38 % 0.0 in 0.0 W/m2 CLR
21:37 32.7 °F 16.9 °F 1012.1 in Calm     39 % 0.0 in 0.0 W/m2 CLR
21:42 32.5 °F 16.3 °F 1012.4 in Calm     38 % 0.0 in 0.0 W/m2 CLR
21:47 32.4 °F 16.7 °F 1012.4 in Calm     39 % 0.0 in 0.0 W/m2 CLR
21:52 32.2 °F 16.5 °F 1012.4 in Calm     39 % 0.0 in 0.0 W/m2 CLR
21:57 32.0 °F 16.7 °F 1012.4 in Calm     40 % 0.0 in 0.0 W/m2 CLR
22:02 31.7 °F 16.8 °F 1012.4 in Calm     41 % 0.0 in 0.0 W/m2 CLR
22:07 31.4 °F 17.0 °F 1012.4 in Calm     42 % 0.0 in 0.0 W/m2 CLR
22:12 31.2 °F 16.8 °F 1012.8 in Calm     42 % 0.0 in 0.0 W/m2 CLR
22:17 31.0 °F 16.6 °F 1012.8 in Calm     42 % 0.0 in 0.0 W/m2 CLR
22:22 30.8 °F 16.8 °F 1012.8 in Calm     43 % 0.0 in 0.0 W/m2 CLR
22:27 30.8 °F 16.8 °F 1012.8 in Calm     43 % 0.0 in 0.0 W/m2 CLR
22:32 30.8 °F 16.8 °F 1012.8 in Calm     43 % 0.0 in 0.0 W/m2 CLR
22:37 30.7 °F 16.7 °F 1012.8 in Calm     43 % 0.0 in 0.0 W/m2 CLR
22:42 30.6 °F 16.6 °F 1012.8 in Calm     43 % 0.0 in 0.0 W/m2 CLR
22:47 30.3 °F 16.3 °F 1012.8 in Calm     43 % 0.0 in 0.0 W/m2 CLR
22:52 30.2 °F 16.2 °F 1012.8 in Calm     43 % 0.0 in 0.0 W/m2 CLR
22:57 30.2 °F 16.2 °F 1012.8 in Calm     43 % 0.0 in 0.0 W/m2 CLR
23:02 30.2 °F 15.8 °F 1012.8 in Calm     42 % 0.0 in 0.0 W/m2 CLR
23:07 30.2 °F 15.8 °F 1012.8 in Calm     42 % 0.0 in 0.0 W/m2 CLR
23:12 30.1 °F 16.2 °F 1012.8 in Calm     43 % 0.0 in 0.0 W/m2 CLR
23:17 29.9 °F 15.9 °F 1012.8 in Calm     43 % 0.0 in 0.0 W/m2 CLR
23:22 29.7 °F 15.8 °F 1012.8 in Calm     43 % 0.0 in 0.0 W/m2 CLR
23:28 29.5 °F 15.6 °F 1012.8 in Calm     43 % 0.0 in 0.0 W/m2 CLR
23:33 29.4 °F 15.5 °F 1013.1 in Calm     43 % 0.0 in 0.0 W/m2 CLR
23:38 29.2 °F 15.7 °F 1013.1 in Calm     44 % 0.0 in 0.0 W/m2 CLR
23:43 29.1 °F 15.6 °F 1013.1 in Calm     44 % 0.0 in 0.0 W/m2 CLR
23:48 28.9 °F 15.8 °F 1013.1 in Calm     45 % 0.0 in 0.0 W/m2 CLR
23:53 28.8 °F 15.7 °F 1013.1 in Calm     45 % 0.0 in 0.0 W/m2 CLR
23:58 28.6 °F 15.5 °F 1013.1 in Calm     45 % 0.0 in 0.0 W/m2 CLR
Lo Temps de Massalio
Compliments of Weather Underground - 1.25 mb